���t,����,�O�C���x,�����t���O,�O�C���Ύ��x,�����t���O,���ԉ��x,�����t���O,���ԑ��Ύ��x,�����t���O,�g�C������,�����t���O,�L�b�`�����x,�����t���O,��󒲎����x,�����t���O
2004/4/1,0:00,7.7,0,49,0,22.3,0,35,0,=,1,21.3,0,18.8,0
2004/4/1,0:15,7.6,0,50,0,22.3,0,35,0,=,1,21.3,0,18.6,0
2004/4/1,0:30,7.3,0,56,0,22.3,0,37,0,=,1,21.2,0,18.5,0
2004/4/1,0:45,7.2,0,60,0,22.2,0,38,0,=,1,21.2,0,18.5,0
2004/4/1,1:00,7,0,60,0,22.2,0,38,0,=,1,21.2,0,18.4,0
2004/4/1,1:15,7.1,0,61,0,22.2,0,39,0,=,1,21.1,0,18.3,0
2004/4/1,1:30,7,0,55,0,22.1,0,39,0,=,1,21.1,0,18.3,0
2004/4/1,1:45,6.6,0,60,0,21.9,0,39,0,=,1,21,0,18.3,0
2004/4/1,2:00,6.5,0,62,0,21.8,0,39,0,=,1,21,0,18.2,0
2004/4/1,2:15,6.3,0,64,0,21.6,0,39,0,=,1,20.9,0,18.2,0
2004/4/1,2:30,6.6,0,56,0,21.4,0,39,0,=,1,20.8,0,18.2,0
2004/4/1,2:45,6.2,0,61,0,21.4,0,38,0,=,1,20.7,0,18.1,0
2004/4/1,3:00,6.3,0,54,0,21.2,0,38,0,=,1,20.6,0,18,0
2004/4/1,3:15,6.3,0,60,0,21.1,0,39,0,=,1,20.5,0,17.9,0
2004/4/1,3:30,6.1,0,62,0,20.9,0,39,0,=,1,20.5,0,17.8,0
2004/4/1,3:45,6,0,64,0,20.8,0,39,0,=,1,20.4,0,17.8,0
2004/4/1,4:00,5.9,0,67,0,20.6,0,39,0,=,1,20.3,0,17.7,0
2004/4/1,4:15,5.8,0,68,0,20.5,0,39,0,=,1,20.2,0,17.7,0
2004/4/1,4:30,5.8,0,68,0,20.4,0,39,0,=,1,20,0,17.6,0
2004/4/1,4:45,5.8,0,66,0,20.3,0,39,0,=,1,20,0,17.5,0
2004/4/1,5:00,5.8,0,64,0,20.1,0,39,0,=,1,19.9,0,17.4,0
2004/4/1,5:15,5.7,0,68,0,20,0,39,0,=,1,19.8,0,17.3,0
2004/4/1,5:30,5.6,0,64,0,19.8,0,40,0,=,1,19.7,0,17.3,0
2004/4/1,5:45,5.6,0,65,0,19.7,0,40,0,=,1,19.6,0,17.2,0
2004/4/1,6:00,5.5,0,62,0,19.6,0,40,0,=,1,19.5,0,17.1,0
2004/4/1,6:15,5.5,0,63,0,19.5,0,40,0,=,1,19.4,0,17,0
2004/4/1,6:30,5.6,0,63,0,19.4,0,40,0,=,1,19.3,0,17,0
2004/4/1,6:45,5.4,0,67,0,19.3,0,41,0,=,1,19.2,0,16.9,0
2004/4/1,7:00,5.7,0,69,0,19.5,0,41,0,=,1,19.2,0,16.9,0
2004/4/1,7:15,6.4,0,67,0,26.7,0,26,0,=,1,19.1,0,16.7,0
2004/4/1,7:30,7.1,0,63,0,26.4,0,26,0,=,1,19.6,0,16.7,0
2004/4/1,7:45,8.3,0,58,0,27.3,0,25,0,=,1,20.5,0,16.7,0
2004/4/1,8:00,9.5,0,52,0,27.7,0,24,0,=,1,21.9,0,16.8,0
2004/4/1,8:15,10.5,0,51,0,27.7,0,24,0,=,1,22.6,0,16.8,0
2004/4/1,8:30,10.8,0,52,0,24.5,0,26,0,=,1,23.1,0,16.9,0
2004/4/1,8:45,11.5,0,48,0,23,0,33,0,=,1,23.2,0,16.9,0
2004/4/1,9:00,12.9,0,41,0,22.2,0,29,0,=,1,22,0,16.9,0
2004/4/1,9:15,13.6,0,41,0,22.6,0,36,0,=,1,21.1,0,16.9,0
2004/4/1,9:30,15,0,32,0,22.3,0,35,0,=,1,21,0,16.9,0
2004/4/1,9:45,14.7,0,29,0,21.9,0,35,0,=,1,21,0,17,0
2004/4/1,10:00,13.8,0,32,0,21.8,0,37,0,=,1,20.8,0,17,0
2004/4/1,10:15,13.6,0,34,0,21.8,0,37,0,=,1,20.6,0,17,0
2004/4/1,10:30,13.7,0,38,0,21.8,0,37,0,=,1,20.6,0,17.1,0
2004/4/1,10:45,13.9,0,41,0,21.6,0,37,0,=,1,20.7,0,17.1,0
2004/4/1,11:00,15.3,0,38,0,21.6,0,37,0,=,1,20.5,0,17.1,0
2004/4/1,11:15,15.9,0,28,0,21.4,0,38,0,=,1,20.5,0,17.2,0
2004/4/1,11:30,16,0,28,0,21.6,0,39,0,=,1,20.5,0,17.2,0
2004/4/1,11:45,16.8,0,29,0,21.4,0,38,0,=,1,20.4,0,17.2,0
2004/4/1,12:00,16.7,0,30,0,21.2,0,37,0,=,1,20.4,0,17.2,0
2004/4/1,12:15,16.5,0,31,0,21.3,0,36,0,=,1,20.2,0,17.3,0
2004/4/1,12:30,15.9,0,37,0,21.3,0,36,0,=,1,20.1,0,17.3,0
2004/4/1,12:45,15.9,0,38,0,21.2,0,36,0,=,1,20.1,0,17.3,0
2004/4/1,13:00,16.1,0,34,0,21.2,0,37,0,=,1,20.1,0,17.3,0
2004/4/1,13:15,16.6,0,35,0,21.1,0,37,0,=,1,20.1,0,17.3,0
2004/4/1,13:30,16.7,0,31,0,21.1,0,37,0,=,1,20.1,0,17.4,0
2004/4/1,13:45,16.4,0,33,0,21.2,0,39,0,=,1,20,0,17.4,0
2004/4/1,14:00,16.2,0,34,0,21.2,0,41,0,=,1,20.1,0,17.4,0
2004/4/1,14:15,15.9,0,32,0,21.3,0,42,0,=,1,20.3,0,17.5,0
2004/4/1,14:30,16,0,36,0,21.3,0,41,0,=,1,20.4,0,17.5,0
2004/4/1,14:45,15.6,0,38,0,21.2,0,41,0,=,1,20.4,0,17.5,0
2004/4/1,15:00,15.8,0,37,0,21.2,0,39,0,=,1,20.5,0,17.6,0
2004/4/1,15:15,16,0,39,0,21.2,0,40,0,=,1,20.3,0,17.6,0
2004/4/1,15:30,15.6,0,38,0,21.3,0,41,0,=,1,20.3,0,17.6,0
2004/4/1,15:45,15.2,0,38,0,21.3,0,40,0,=,1,20.3,0,17.6,0
2004/4/1,16:00,15.2,0,39,0,21.3,0,39,0,=,1,20.3,0,17.6,0
2004/4/1,16:15,15.1,0,38,0,21.4,0,40,0,=,1,20.3,0,17.6,0
2004/4/1,16:30,14.9,0,39,0,21.5,0,41,0,=,1,20.3,0,17.6,0
2004/4/1,16:45,14.9,0,40,0,21.6,0,43,0,=,1,20.3,0,17.6,0
2004/4/1,17:00,14.6,0,40,0,21.6,0,42,0,=,1,20.5,0,17.7,0
2004/4/1,17:15,14.7,0,44,0,21.4,0,38,0,=,1,20.5,0,17.7,0
2004/4/1,17:30,14.2,0,51,0,21.3,0,37,0,=,1,20.3,0,17.7,0
2004/4/1,17:45,14.1,0,58,0,21.4,0,38,0,=,1,20,0,17.8,0
2004/4/1,18:00,13.4,0,61,0,21.5,0,40,0,=,1,20.1,0,17.8,0
2004/4/1,18:15,13.4,0,55,0,21.4,0,40,0,=,1,20.1,0,17.8,0
2004/4/1,18:30,12.9,0,53,0,21.3,0,41,0,=,1,20.1,0,17.8,0
2004/4/1,18:45,12.8,0,57,0,21.4,0,43,0,=,1,20,0,17.8,0
2004/4/1,19:00,12.2,0,61,0,21.5,0,47,0,=,1,20,0,17.8,0
2004/4/1,19:15,12,0,62,0,21.5,0,47,0,=,1,20.1,0,17.8,0
2004/4/1,19:30,11.7,0,68,0,21.7,0,48,0,=,1,20.1,0,17.8,0
2004/4/1,19:45,11.6,0,66,0,21.7,0,47,0,=,1,20.3,0,17.8,0
2004/4/1,20:00,11.4,0,69,0,21.9,0,45,0,=,1,20.2,0,17.8,0
2004/4/1,20:15,11.2,0,71,0,21.8,0,42,0,=,1,20.3,0,17.8,0
2004/4/1,20:30,11.3,0,71,0,21.7,0,42,0,=,1,20.4,0,17.8,0
2004/4/1,20:45,11.6,0,68,0,21.9,0,44,0,=,1,20.2,0,17.8,0
2004/4/1,21:00,12.2,0,63,0,21.9,0,44,0,=,1,20.3,0,17.8,0
2004/4/1,21:15,12.1,0,63,0,22,0,45,0,=,1,20.5,0,17.8,0
2004/4/1,21:30,12.2,0,63,0,22.1,0,54,0,=,1,20.6,0,17.8,0
2004/4/1,21:45,12.2,0,65,0,22.2,0,49,0,=,1,20.8,0,17.8,0
2004/4/1,22:00,12,0,69,0,22.2,0,43,0,=,1,21,0,17.7,0
2004/4/1,22:15,12,0,70,0,22,0,42,0,=,1,21,0,17.7,0
2004/4/1,22:30,12.5,0,74,0,22.1,0,45,0,=,1,21,0,17.6,0
2004/4/1,22:45,12.6,0,72,0,22.1,0,47,0,=,1,21.6,0,17.5,0
2004/4/1,23:00,12.5,0,75,0,21.9,0,43,0,=,1,21.7,0,17.5,0
2004/4/1,23:15,13.2,0,80,0,21.9,0,43,0,=,1,21.4,0,17.5,0
2004/4/1,23:30,13.6,0,79,0,21.8,0,44,0,=,1,21.2,0,17.5,0
2004/4/1,23:45,13.6,0,80,0,22,0,48,0,=,1,21.1,0,17.4,0
2004/4/2,0:00,13.8,0,81,0,22.1,0,48,0,=,1,21.2,0,17.4,0
2004/4/2,0:15,13.4,0,85,0,22.2,0,48,0,=,1,21.3,0,17.4,0
2004/4/2,0:30,13.3,0,93,0,22.1,0,48,0,=,1,21.4,0,17.4,0
2004/4/2,0:45,13.6,0,94,0,21.9,0,48,0,=,1,21.4,0,17.4,0
2004/4/2,1:00,14.3,0,95,0,21.9,0,48,0,=,1,21.4,0,17.4,0
2004/4/2,1:15,14.4,0,94,0,21.8,0,48,0,=,1,21.3,0,17.4,0
2004/4/2,1:30,14.4,0,94,0,21.8,0,49,0,=,1,21.3,0,17.5,0
2004/4/2,1:45,14.2,0,96,0,21.6,0,49,0,=,1,21.2,0,17.5,0
2004/4/2,2:00,14.4,0,90,0,21.5,0,49,0,=,1,21.1,0,17.5,0
2004/4/2,2:15,14.3,0,88,0,21.4,0,49,0,=,1,21.1,0,17.5,0
2004/4/2,2:30,13.9,0,88,0,21.4,0,49,0,=,1,21,0,17.6,0
2004/4/2,2:45,13.8,0,84,0,21.3,0,50,0,=,1,21,0,17.6,0
2004/4/2,3:00,13.6,0,85,0,21.2,0,50,0,=,1,20.9,0,17.6,0
2004/4/2,3:15,13.5,0,80,0,21.1,0,50,0,=,1,20.9,0,17.7,0
2004/4/2,3:30,13.4,0,78,0,21.1,0,50,0,=,1,20.8,0,17.7,0
2004/4/2,3:45,13.4,0,77,0,21,0,50,0,=,1,20.8,0,17.7,0
2004/4/2,4:00,13.4,0,78,0,21,0,50,0,=,1,20.7,0,17.7,0
2004/4/2,4:15,13.4,0,76,0,20.9,0,50,0,=,1,20.6,0,17.8,0
2004/4/2,4:30,13.3,0,77,0,20.8,0,50,0,=,1,20.6,0,17.8,0
2004/4/2,4:45,13.1,0,75,0,20.8,0,49,0,=,1,20.5,0,17.8,0
2004/4/2,5:00,12.9,0,70,0,20.7,0,49,0,=,1,20.5,0,17.8,0
2004/4/2,5:15,12.8,0,69,0,20.7,0,49,0,=,1,20.4,0,17.8,0
2004/4/2,5:30,12.5,0,65,0,20.6,0,49,0,=,1,20.3,0,17.8,0
2004/4/2,5:45,12.2,0,64,0,20.5,0,49,0,=,1,20.3,0,17.8,0
2004/4/2,6:00,12.1,0,63,0,20.5,0,49,0,=,1,20.2,0,17.8,0
2004/4/2,6:15,12,0,64,0,20.4,0,48,0,=,1,20.1,0,17.7,0
2004/4/2,6:30,11.9,0,62,0,20.3,0,48,0,=,1,20.1,0,17.7,0
2004/4/2,6:45,11.9,0,60,0,20.3,0,48,0,=,1,20,0,17.7,0
2004/4/2,7:00,12.2,0,59,0,20.3,0,47,0,=,1,19.9,0,17.7,0
2004/4/2,7:15,12.4,0,62,0,20.2,0,44,0,=,1,19.9,0,17.7,0
2004/4/2,7:30,12.8,0,60,0,20.4,0,45,0,=,1,19.8,0,17.6,0
2004/4/2,7:45,13.1,0,54,0,20.3,0,47,0,=,1,19.6,0,17.6,0
2004/4/2,8:00,13.2,0,54,0,20.2,0,44,0,=,1,19.7,0,17.6,0
2004/4/2,8:15,13.4,0,54,0,20.2,0,46,0,=,1,19.5,0,17.6,0
2004/4/2,8:30,13.3,0,50,0,19.8,0,43,0,=,1,19.4,0,17.6,0
2004/4/2,8:45,13.8,0,49,0,20.4,0,45,0,=,1,19.2,0,17.6,0
2004/4/2,9:00,14.3,0,47,0,20.5,0,44,0,=,1,19.3,0,17.7,0
2004/4/2,9:15,14.4,0,46,0,20.4,0,43,0,=,1,19.5,0,17.7,0
2004/4/2,9:30,14.9,0,45,0,20.6,0,44,0,=,1,19.7,0,17.8,0
2004/4/2,9:45,15.3,0,42,0,20.3,0,39,0,=,1,19.6,0,17.9,0
2004/4/2,10:00,15.6,0,40,0,19.8,0,38,0,=,1,19.6,0,17.9,0
2004/4/2,10:15,16.3,0,39,0,19.5,0,38,0,=,1,19.2,0,17.9,0
2004/4/2,10:30,16.4,0,37,0,19.3,0,38,0,=,1,18.9,0,17.9,0
2004/4/2,10:45,17.3,0,35,0,19.2,0,38,0,=,1,18.6,0,17.9,0
2004/4/2,11:00,17.4,0,35,0,19.5,0,39,0,=,1,18.5,0,17.9,0
2004/4/2,11:15,18.6,0,33,0,19.5,0,37,0,=,1,18.5,0,17.9,0
2004/4/2,11:30,19.2,0,29,0,19.5,0,37,0,=,1,18.5,0,17.9,0
2004/4/2,11:45,19.4,0,30,0,19.4,0,38,0,=,1,18.3,0,17.9,0
2004/4/2,12:00,19.3,0,29,0,19.4,0,37,0,=,1,18.2,0,17.9,0
2004/4/2,12:15,19.5,0,29,0,19.3,0,37,0,=,1,18.1,0,17.9,0
2004/4/2,12:30,19.5,0,28,0,19.7,0,40,0,=,1,18,0,17.9,0
2004/4/2,12:45,19.5,0,29,0,19.8,0,40,0,=,1,18.2,0,17.9,0
2004/4/2,13:00,19,0,28,0,19.7,0,37,0,=,1,18.4,0,17.9,0
2004/4/2,13:15,19.6,0,28,0,19.7,0,36,0,=,1,18.4,0,17.9,0
2004/4/2,13:30,19.3,0,28,0,19.8,0,36,0,=,1,18.4,0,17.9,0
2004/4/2,13:45,19.2,0,27,0,26.8,0,23,0,=,1,18.4,0,17.9,0
2004/4/2,14:00,19.2,0,27,0,26.3,0,25,0,=,1,18.5,0,17.9,0
2004/4/2,14:15,18.8,0,28,0,27.3,0,24,0,=,1,19.9,0,17.9,0
2004/4/2,14:30,18.8,0,30,0,27.8,0,23,0,=,1,20.4,0,17.9,0
2004/4/2,14:45,18.4,0,29,0,24.4,0,28,0,=,1,21,0,17.9,0
2004/4/2,15:00,18.2,0,30,0,23.6,0,29,0,=,1,21.4,0,17.9,0
2004/4/2,15:15,17.9,0,31,0,23.3,0,28,0,=,1,21.2,0,17.9,0
2004/4/2,15:30,17.8,0,32,0,23.1,0,31,0,=,1,21.1,0,17.9,0
2004/4/2,15:45,17.6,0,31,0,22.7,0,33,0,=,1,21,0,18,0
2004/4/2,16:00,17.5,0,32,0,22.7,0,34,0,=,1,21,0,18,0
2004/4/2,16:15,16.9,0,34,0,22.4,0,36,0,=,1,20.9,0,18.1,0
2004/4/2,16:30,16.7,0,35,0,22.1,0,32,0,=,1,20.8,0,18.2,0
2004/4/2,16:45,16.8,0,34,0,22,0,32,0,=,1,20.7,0,18.3,0
2004/4/2,17:00,16.7,0,36,0,21.9,0,34,0,=,1,20.6,0,18.4,0
2004/4/2,17:15,16.3,0,38,0,27.9,0,23,0,=,1,20.6,0,18.4,0
2004/4/2,17:30,16,0,38,0,27.2,0,26,0,=,1,20.8,0,18.4,0
2004/4/2,17:45,15.8,0,40,0,27.8,0,25,0,=,1,21.5,0,18.4,0
2004/4/2,18:00,15.4,0,44,0,27.6,0,25,0,=,1,22.1,0,18.5,0
2004/4/2,18:15,14.9,0,48,0,27.7,0,26,0,=,1,22.5,0,18.5,0
2004/4/2,18:30,14.5,0,43,0,27.4,0,24,0,=,1,22.8,0,18.4,0
2004/4/2,18:45,14,0,42,0,27.9,0,24,0,=,1,23.1,0,18.4,0
2004/4/2,19:00,13.7,0,45,0,27.9,0,26,0,=,1,23,0,18.5,0
2004/4/2,19:15,13.4,0,44,0,27.5,0,26,0,=,1,23.2,0,18.5,0
2004/4/2,19:30,13.2,0,45,0,27.5,0,26,0,=,1,23.4,0,18.5,0
2004/4/2,19:45,13,0,48,0,27.5,0,26,0,=,1,23.6,0,18.5,0
2004/4/2,20:00,12.6,0,49,0,27.8,0,27,0,=,1,24,0,18.4,0
2004/4/2,20:15,12.4,0,50,0,25.9,0,28,0,=,1,24.3,0,18.4,0
2004/4/2,20:30,12.2,0,51,0,25.4,0,32,0,=,1,24.3,0,18.4,0
2004/4/2,20:45,11.9,0,52,0,25.3,0,35,0,=,1,23.9,0,18.4,0
2004/4/2,21:00,12,0,52,0,25.2,0,37,0,=,1,23.9,0,18.3,0
2004/4/2,21:15,11.9,0,53,0,25.1,0,42,0,=,1,24,0,18.3,0
2004/4/2,21:30,11.9,0,53,0,24.6,0,38,0,=,1,24,0,18.3,0
2004/4/2,21:45,11.8,0,54,0,24.1,0,33,0,=,1,23.9,0,18.2,0
2004/4/2,22:00,11.6,0,55,0,24.2,0,34,0,=,1,23.5,0,18.2,0
2004/4/2,22:15,11.5,0,57,0,24.1,0,34,0,=,1,23.3,0,18.2,0
2004/4/2,22:30,11.3,0,57,0,23.9,0,36,0,=,1,23.2,0,18.1,0
2004/4/2,22:45,11.3,0,58,0,23.9,0,38,0,=,1,23.1,0,18.1,0
2004/4/2,23:00,11.5,0,58,0,24.2,0,38,0,=,1,23,0,18,0
2004/4/2,23:15,11.4,0,60,0,23.9,0,40,0,=,1,23,0,18,0
2004/4/2,23:30,11.3,0,60,0,23.8,0,40,0,=,1,23.1,0,18,0
2004/4/2,23:45,11.1,0,62,0,23.8,0,40,0,=,1,23,0,18,0
2004/4/3,0:00,11.3,0,62,0,23.7,0,38,0,=,1,22.9,0,17.9,0
2004/4/3,0:15,11.5,0,61,0,23.5,0,37,0,=,1,22.8,0,17.9,0
2004/4/3,0:30,11.2,0,62,0,23.2,0,36,0,=,1,22.6,0,17.9,0
2004/4/3,0:45,11.3,0,62,0,23,0,36,0,=,1,22.4,0,17.8,0
2004/4/3,1:00,11.5,0,62,0,22.9,0,36,0,=,1,22.2,0,17.8,0
2004/4/3,1:15,11.3,0,63,0,22.6,0,36,0,=,1,22,0,17.7,0
2004/4/3,1:30,11.3,0,63,0,22.5,0,36,0,=,1,21.8,0,17.7,0
2004/4/3,1:45,11.6,0,61,0,22.3,0,37,0,=,1,21.7,0,17.6,0
2004/4/3,2:00,11.6,0,59,0,22.1,0,37,0,=,1,21.5,0,17.6,0
2004/4/3,2:15,11.8,0,57,0,21.9,0,37,0,=,1,21.4,0,17.5,0
2004/4/3,2:30,11.9,0,54,0,21.7,0,37,0,=,1,21.2,0,17.5,0
2004/4/3,2:45,12.1,0,54,0,21.6,0,38,0,=,1,21.1,0,17.4,0
2004/4/3,3:00,12,0,53,0,21.5,0,38,0,=,1,21,0,17.4,0
2004/4/3,3:15,11.9,0,55,0,21.4,0,39,0,=,1,20.9,0,17.3,0
2004/4/3,3:30,11.9,0,55,0,21.3,0,39,0,=,1,20.9,0,17.3,0
2004/4/3,3:45,11.7,0,56,0,21.2,0,40,0,=,1,20.8,0,17.3,0
2004/4/3,4:00,12,0,56,0,21.1,0,40,0,=,1,20.8,0,17.2,0
2004/4/3,4:15,12.1,0,56,0,21,0,40,0,=,1,20.7,0,17.2,0
2004/4/3,4:30,12.1,0,57,0,20.9,0,41,0,=,1,20.6,0,17.2,0
2004/4/3,4:45,12.2,0,59,0,20.9,0,41,0,=,1,20.5,0,17.1,0
2004/4/3,5:00,12.2,0,60,0,20.8,0,41,0,=,1,20.5,0,17.1,0
2004/4/3,5:15,12.2,0,61,0,20.7,0,41,0,=,1,20.4,0,17.1,0
2004/4/3,5:30,11.7,0,62,0,20.6,0,42,0,=,1,20.3,0,17.1,0
2004/4/3,5:45,12.1,0,64,0,20.5,0,42,0,=,1,20.2,0,17.1,0
2004/4/3,6:00,12.2,0,64,0,20.5,0,42,0,=,1,20.2,0,17,0
2004/4/3,6:15,12.2,0,64,0,20.4,0,42,0,=,1,20.1,0,17,0
2004/4/3,6:30,12.4,0,66,0,20.3,0,43,0,=,1,20,0,17,0
2004/4/3,6:45,12.6,0,66,0,20.2,0,43,0,=,1,20,0,17,0
2004/4/3,7:00,13,0,66,0,20.2,0,43,0,=,1,19.9,0,17,0
2004/4/3,7:15,13.3,0,65,0,20,0,42,0,=,1,19.8,0,16.9,0
2004/4/3,7:30,13.7,0,62,0,20,0,45,0,=,1,19.8,0,16.9,0
2004/4/3,7:45,14.3,0,61,0,20,0,46,0,=,1,19.6,0,16.9,0
2004/4/3,8:00,14.7,0,60,0,19.9,0,47,0,=,1,19.6,0,16.9,0
2004/4/3,8:15,15.3,0,57,0,20.1,0,47,0,=,1,19.5,0,17,0
2004/4/3,8:30,16,0,54,0,19.9,0,48,0,=,1,19.4,0,17,0
2004/4/3,8:45,16.6,0,52,0,20.1,0,48,0,=,1,19.5,0,17.1,0
2004/4/3,9:00,17.3,0,51,0,20.4,0,49,0,=,1,19.3,0,17.2,0
2004/4/3,9:15,17.9,0,48,0,20.4,0,47,0,=,1,19.5,0,17.2,0
2004/4/3,9:30,18.2,0,48,0,20.4,0,50,0,=,1,19.6,0,17.3,0
2004/4/3,9:45,18.5,0,47,0,20.3,0,48,0,=,1,19.5,0,17.3,0
2004/4/3,10:00,19.2,0,44,0,20.4,0,47,0,=,1,19.7,0,17.3,0
2004/4/3,10:15,19.3,0,44,0,20.8,0,49,0,=,1,19.4,0,17.4,0
2004/4/3,10:30,19.5,0,44,0,21.1,0,50,0,=,1,19.7,0,17.4,0
2004/4/3,10:45,20.3,0,41,0,21.1,0,48,0,=,1,20,0,17.5,0
2004/4/3,11:00,21,0,38,0,21.1,0,47,0,=,1,20.2,0,17.5,0
2004/4/3,11:15,21.9,0,36,0,21.2,0,46,0,=,1,20.2,0,17.6,0
2004/4/3,11:30,21.8,0,36,0,21.2,0,45,0,=,1,20.2,0,17.6,0
2004/4/3,11:45,21.6,0,35,0,21.2,0,45,0,=,1,20.2,0,17.7,0
2004/4/3,12:00,22.4,0,34,0,21.3,0,45,0,=,1,20.2,0,17.8,0
2004/4/3,12:15,22.9,0,32,0,21.4,0,44,0,=,1,20.2,0,17.8,0
2004/4/3,12:30,22.5,0,32,0,21.3,0,44,0,=,1,20.2,0,17.9,0
2004/4/3,12:45,22.2,0,32,0,21.4,0,44,0,=,1,20.2,0,17.9,0
2004/4/3,13:00,22.5,0,30,0,21.5,0,44,0,=,1,20.2,0,17.9,0
2004/4/3,13:15,22.5,0,30,0,21.5,0,43,0,=,1,20.2,0,18,0
2004/4/3,13:30,22,0,30,0,21.5,0,43,0,=,1,20.2,0,18.1,0
2004/4/3,13:45,21.8,0,30,0,21.6,0,42,0,=,1,20.2,0,18.1,0
2004/4/3,14:00,21.1,0,30,0,21.6,0,42,0,=,1,20.3,0,18.1,0
2004/4/3,14:15,20.6,0,32,0,21.6,0,41,0,=,1,20.3,0,18.2,0
2004/4/3,14:30,20.8,0,30,0,21.6,0,41,0,=,1,20.3,0,18.2,0
2004/4/3,14:45,20.1,0,28,0,21.6,0,40,0,=,1,20.3,0,18.2,0
2004/4/3,15:00,19.8,0,32,0,21.7,0,40,0,=,1,20.3,0,18.2,0
2004/4/3,15:15,20.2,0,29,0,21.7,0,39,0,=,1,20.3,0,18.3,0
2004/4/3,15:30,19.9,0,28,0,21.7,0,39,0,=,1,20.3,0,18.3,0
2004/4/3,15:45,19.4,0,29,0,21.7,0,38,0,=,1,20.3,0,18.3,0
2004/4/3,16:00,18.5,0,34,0,21.7,0,38,0,=,1,20.4,0,18.3,0
2004/4/3,16:15,18.6,0,33,0,21.7,0,37,0,=,1,20.4,0,18.4,0
2004/4/3,16:30,18.5,0,36,0,21.7,0,37,0,=,1,20.4,0,18.4,0
2004/4/3,16:45,17.9,0,37,0,21.7,0,37,0,=,1,20.4,0,18.4,0
2004/4/3,17:00,17.5,0,39,0,21.8,0,39,0,=,1,20.4,0,18.4,0
2004/4/3,17:15,16.9,0,40,0,21.9,0,39,0,=,1,20.5,0,18.5,0
2004/4/3,17:30,16.4,0,42,0,22.1,0,43,0,=,1,20.5,0,18.5,0
2004/4/3,17:45,16.2,0,43,0,22.3,0,48,0,=,1,20.7,0,18.5,0
2004/4/3,18:00,15.6,0,40,0,22.4,0,47,0,=,1,20.9,0,18.5,0
2004/4/3,18:15,15.6,0,40,0,22.7,0,44,0,=,1,21.2,0,18.5,0
2004/4/3,18:30,15.1,0,45,0,22,0,35,0,=,1,21.3,0,18.5,0
2004/4/3,18:45,14.7,0,48,0,22.5,0,40,0,=,1,21.4,0,18.5,0
2004/4/3,19:00,14.4,0,49,0,22.5,0,41,0,=,1,21.1,0,18.5,0
2004/4/3,19:15,14.3,0,49,0,22.5,0,41,0,=,1,21.3,0,18.5,0
2004/4/3,19:30,14.2,0,49,0,22.5,0,41,0,=,1,21.4,0,18.4,0
2004/4/3,19:45,14.2,0,51,0,22.4,0,40,0,=,1,21.3,0,18.4,0
2004/4/3,20:00,13.7,0,54,0,29.9,0,22,0,=,1,21.3,0,18.4,0
2004/4/3,20:15,13.5,0,52,0,26.6,0,31,0,=,1,21.2,0,18.4,0
2004/4/3,20:30,13.4,0,49,0,27.9,0,29,0,=,1,22.7,0,18.4,0
2004/4/3,20:45,13.4,0,49,0,28.4,0,28,0,=,1,23.1,0,18.4,0
2004/4/3,21:00,13.2,0,52,0,27.8,0,29,0,=,1,23.5,0,18.4,0
2004/4/3,21:15,12.7,0,59,0,28,0,29,0,=,1,23.8,0,18.4,0
2004/4/3,21:30,12.3,0,58,0,25.8,0,32,0,=,1,23.9,0,18.4,0
2004/4/3,21:45,12.1,0,63,0,25.3,0,37,0,=,1,23.7,0,18.3,0
2004/4/3,22:00,12,0,63,0,25.1,0,37,0,=,1,23.6,0,18.4,0
2004/4/3,22:15,11.4,0,73,0,24.7,0,38,0,=,1,23.5,0,18.4,0
2004/4/3,22:30,11.3,0,75,0,24.4,0,39,0,=,1,23.2,0,18.4,0
2004/4/3,22:45,10.8,0,78,0,24.4,0,39,0,=,1,23.1,0,18.4,0
2004/4/3,23:00,10.6,0,78,0,24.4,0,41,0,=,1,23,0,18.4,0
2004/4/3,23:15,11.2,0,80,0,24.3,0,41,0,=,1,22.9,0,18.3,0
2004/4/3,23:30,10.8,0,79,0,24.2,0,40,0,=,1,22.9,0,18.3,0
2004/4/3,23:45,11.1,0,81,0,24.3,0,41,0,=,1,22.9,0,18.3,0
2004/4/4,0:00,11,0,78,0,24.1,0,42,0,=,1,23,0,18.3,0
2004/4/4,0:15,11,0,75,0,24.2,0,42,0,=,1,23,0,18.3,0
2004/4/4,0:30,10.8,0,79,0,24.1,0,42,0,=,1,23,0,18.3,0
2004/4/4,0:45,10.5,0,83,0,24,0,43,0,=,1,22.9,0,18.3,0
2004/4/4,1:00,10.4,0,85,0,24,0,43,0,=,1,22.9,0,18.3,0
2004/4/4,1:15,10.4,0,86,0,23.8,0,43,0,=,1,22.9,0,18.3,0
2004/4/4,1:30,10.5,0,85,0,23.7,0,43,0,=,1,22.8,0,18.3,0
2004/4/4,1:45,10.4,0,85,0,23.5,0,43,0,=,1,22.7,0,18.3,0
2004/4/4,2:00,10.4,0,86,0,23.3,0,44,0,=,1,22.7,0,18.3,0
2004/4/4,2:15,10.4,0,87,0,23.1,0,44,0,=,1,22.6,0,18.3,0
2004/4/4,2:30,10.3,0,88,0,23,0,44,0,=,1,22.5,0,18.3,0
2004/4/4,2:45,10.2,0,87,0,22.8,0,44,0,=,1,22.4,0,18.3,0
2004/4/4,3:00,9.8,0,87,0,22.7,0,44,0,=,1,22.3,0,18.3,0
2004/4/4,3:15,9.3,0,87,0,22.6,0,45,0,=,1,22.2,0,18.3,0
2004/4/4,3:30,9.3,0,88,0,22.5,0,44,0,=,1,22.1,0,18.3,0
2004/4/4,3:45,9,0,88,0,22.3,0,45,0,=,1,22,0,18.3,0
2004/4/4,4:00,8.8,0,88,0,22.2,0,45,0,=,1,21.9,0,18.3,0
2004/4/4,4:15,8.6,0,87,0,22.1,0,45,0,=,1,21.8,0,18.4,0
2004/4/4,4:30,8.6,0,88,0,22,0,45,0,=,1,21.7,0,18.4,0
2004/4/4,4:45,8.6,0,90,0,21.9,0,45,0,=,1,21.6,0,18.3,0
2004/4/4,5:00,8.6,0,90,0,21.8,0,45,0,=,1,21.5,0,18.3,0
2004/4/4,5:15,8.6,0,89,0,21.7,0,45,0,=,1,21.4,0,18.2,0
2004/4/4,5:30,8.6,0,89,0,21.5,0,45,0,=,1,21.3,0,18.2,0
2004/4/4,5:45,8.5,0,88,0,21.5,0,45,0,=,1,21.2,0,18.1,0
2004/4/4,6:00,8.4,0,87,0,21.3,0,45,0,=,1,21.1,0,18.1,0
2004/4/4,6:15,8.2,0,88,0,21.2,0,45,0,=,1,21,0,18,0
2004/4/4,6:30,8.2,0,89,0,21.1,0,45,0,=,1,20.9,0,18,0
2004/4/4,6:45,8,0,91,0,21,0,45,0,=,1,20.8,0,18,0
2004/4/4,7:00,8.1,0,90,0,20.9,0,45,0,=,1,20.8,0,17.9,0
2004/4/4,7:15,8.4,0,85,0,20.9,0,46,0,=,1,20.7,0,17.9,0
2004/4/4,7:30,8.5,0,85,0,20.8,0,45,0,=,1,20.6,0,17.9,0
2004/4/4,7:45,8.6,0,86,0,20.8,0,47,0,=,1,20.5,0,17.9,0
2004/4/4,8:00,9.3,0,83,0,20.8,0,48,0,=,1,20.4,0,17.9,0
2004/4/4,8:15,10.4,0,78,0,20.8,0,49,0,=,1,20.3,0,17.8,0
2004/4/4,8:30,11.7,0,65,0,20.5,0,48,0,=,1,20.2,0,17.8,0
2004/4/4,8:45,12,0,62,0,20.6,0,47,0,=,1,19.8,0,17.8,0
2004/4/4,9:00,13,0,58,0,19.4,0,40,0,=,1,19.8,0,17.7,0
2004/4/4,9:15,13.2,0,60,0,19.1,0,43,0,=,1,19.5,0,17.7,0
2004/4/4,9:30,14,0,53,0,19,0,44,0,=,1,18.7,0,17.7,0
2004/4/4,9:45,15,0,49,0,19.9,0,45,0,=,1,18.4,0,17.7,0
2004/4/4,10:00,15.2,0,45,0,20,0,45,0,=,1,18.8,0,17.7,0
2004/4/4,10:15,15.9,0,44,0,19.5,0,42,0,=,1,19.3,0,17.7,0
2004/4/4,10:30,15.7,0,42,0,19.7,0,43,0,=,1,19.3,0,17.7,0
2004/4/4,10:45,15.7,0,38,0,20.1,0,47,0,=,1,18.8,0,17.7,0
2004/4/4,11:00,13.3,0,52,0,20.3,0,47,0,=,1,19.1,0,17.7,0
2004/4/4,11:15,10.4,0,69,0,20.5,0,52,0,=,1,19.4,0,17.7,0
2004/4/4,11:30,10.8,0,73,0,20.6,0,50,0,=,1,19.6,0,17.7,0
2004/4/4,11:45,11.8,0,67,0,20.7,0,49,0,=,1,19.6,0,17.8,0
2004/4/4,12:00,12.2,0,67,0,20.6,0,50,0,=,1,19.8,0,17.8,0
2004/4/4,12:15,13.2,0,59,0,20.7,0,50,0,=,1,19.8,0,17.8,0
2004/4/4,12:30,13.8,0,52,0,20.6,0,50,0,=,1,19.8,0,17.7,0
2004/4/4,12:45,12.3,0,56,0,20.7,0,50,0,=,1,19.9,0,17.7,0
2004/4/4,13:00,10.3,0,74,0,20.7,0,50,0,=,1,19.9,0,17.7,0
2004/4/4,13:15,10.3,0,76,0,20.7,0,49,0,=,1,19.9,0,17.8,0
2004/4/4,13:30,10.4,0,75,0,20.7,0,49,0,=,1,19.9,0,17.8,0
2004/4/4,13:45,10.6,0,77,0,20.6,0,49,0,=,1,19.9,0,17.7,0
2004/4/4,14:00,10.8,0,77,0,20.6,0,49,0,=,1,19.9,0,17.7,0
2004/4/4,14:15,10.8,0,74,0,20.5,0,50,0,=,1,19.9,0,17.7,0
2004/4/4,14:30,10.8,0,74,0,20.4,0,50,0,=,1,19.8,0,17.7,0
2004/4/4,14:45,10.4,0,74,0,20.3,0,51,0,=,1,19.8,0,17.6,0
2004/4/4,15:00,10.3,0,77,0,20.2,0,51,0,=,1,19.8,0,17.6,0
2004/4/4,15:15,10.8,0,77,0,20.1,0,52,0,=,1,19.7,0,17.6,0
2004/4/4,15:30,11.3,0,72,0,20.1,0,52,0,=,1,19.7,0,17.6,0
2004/4/4,15:45,11.1,0,72,0,20.1,0,52,0,=,1,19.6,0,17.6,0
2004/4/4,16:00,12.2,0,65,0,20,0,53,0,=,1,19.6,0,17.6,0
2004/4/4,16:15,12.7,0,62,0,20,0,53,0,=,1,19.6,0,17.5,0
2004/4/4,16:30,12.7,0,53,0,19.9,0,53,0,=,1,19.5,0,17.5,0
2004/4/4,16:45,12.4,0,51,0,19.8,0,49,0,=,1,19.5,0,17.5,0
2004/4/4,17:00,12.2,0,53,0,19.3,0,42,0,=,1,19.5,0,17.5,0
2004/4/4,17:15,12.2,0,51,0,19.4,0,46,0,=,1,19.1,0,17.5,0
2004/4/4,17:30,12.2,0,50,0,19.3,0,48,0,=,1,18.9,0,17.5,0
2004/4/4,17:45,12.3,0,48,0,19.4,0,50,0,=,1,18.9,0,17.5,0
2004/4/4,18:00,12.1,0,47,0,19.5,0,51,0,=,1,18.9,0,17.5,0
2004/4/4,18:15,11.8,0,49,0,19.2,0,40,0,=,1,18.9,0,17.4,0
2004/4/4,18:30,11.3,0,50,0,19.6,0,55,0,=,1,18.7,0,17.4,0
2004/4/4,18:45,11.1,0,52,0,20,0,62,0,=,1,18.8,0,17.4,0
2004/4/4,19:00,10.6,0,54,0,20.1,0,62,0,=,1,19.2,0,17.4,0
2004/4/4,19:15,10.6,0,55,0,19.9,0,47,0,=,1,19.4,0,17.4,0
2004/4/4,19:30,10.4,0,58,0,19.9,0,49,0,=,1,19.6,0,17.3,0
2004/4/4,19:45,9.9,0,62,0,19.9,0,49,0,=,1,19.2,0,17.3,0
2004/4/4,20:00,9.4,0,63,0,20,0,48,0,=,1,19.3,0,17.3,0
2004/4/4,20:15,9,0,66,0,20.2,0,51,0,=,1,19.2,0,17.3,0
2004/4/4,20:30,8.6,0,70,0,20.4,0,53,0,=,1,19.3,0,17.3,0
2004/4/4,20:45,8.3,0,71,0,20.4,0,53,0,=,1,19.5,0,17.3,0
2004/4/4,21:00,8.2,0,72,0,20.5,0,54,0,=,1,19.6,0,17.2,0
2004/4/4,21:15,8,0,73,0,20.6,0,55,0,=,1,19.8,0,17.2,0
2004/4/4,21:30,7.9,0,74,0,20.6,0,54,0,=,1,19.8,0,17.2,0
2004/4/4,21:45,7.5,0,75,0,20.7,0,50,0,=,1,19.9,0,17.1,0
2004/4/4,22:00,7.5,0,77,0,20.8,0,50,0,=,1,19.8,0,17,0
2004/4/4,22:15,7.3,0,77,0,21,0,53,0,=,1,19.8,0,17,0
2004/4/4,22:30,7,0,78,0,21.1,0,53,0,=,1,19.9,0,17,0
2004/4/4,22:45,7,0,79,0,21,0,50,0,=,1,20,0,16.9,0
2004/4/4,23:00,6.6,0,81,0,20.9,0,49,0,=,1,20,0,16.9,0
2004/4/4,23:15,6.6,0,81,0,20.7,0,49,0,=,1,20,0,16.8,0
2004/4/4,23:30,6.5,0,81,0,20.7,0,48,0,=,1,19.9,0,16.7,0
2004/4/4,23:45,6.5,0,80,0,20.7,0,47,0,=,1,19.8,0,16.6,0
2004/4/5,0:00,6,0,81,0,20.6,0,47,0,=,1,19.8,0,16.6,0
2004/4/5,0:15,6.1,0,84,0,20.5,0,46,0,=,1,19.8,0,16.5,0
2004/4/5,0:30,6.3,0,84,0,20.2,0,45,0,=,1,19.7,0,16.4,0
2004/4/5,0:45,6.3,0,83,0,20.1,0,45,0,=,1,19.6,0,16.4,0
2004/4/5,1:00,6.3,0,81,0,19.9,0,44,0,=,1,19.5,0,16.3,0
2004/4/5,1:15,6.3,0,81,0,19.8,0,44,0,=,1,19.3,0,16.3,0
2004/4/5,1:30,5.8,0,83,0,19.6,0,45,0,=,1,19.2,0,16.2,0
2004/4/5,1:45,5.5,0,84,0,19.5,0,46,0,=,1,19.2,0,16.1,0
2004/4/5,2:00,5.4,0,85,0,19.4,0,47,0,=,1,19.1,0,16.1,0
2004/4/5,2:15,5.8,0,85,0,19.3,0,47,0,=,1,19.1,0,16,0
2004/4/5,2:30,5.4,0,84,0,19.1,0,47,0,=,1,19,0,16,0
2004/4/5,2:45,5.2,0,86,0,19,0,47,0,=,1,18.9,0,16,0
2004/4/5,3:00,4.9,0,86,0,18.9,0,47,0,=,1,18.9,0,15.9,0
2004/4/5,3:15,5,0,87,0,18.8,0,47,0,=,1,18.8,0,15.9,0
2004/4/5,3:30,5,0,87,0,18.6,0,47,0,=,1,18.7,0,15.8,0
2004/4/5,3:45,4.8,0,87,0,18.4,0,47,0,=,1,18.6,0,15.7,0
2004/4/5,4:00,4.9,0,87,0,18.4,0,47,0,=,1,18.5,0,15.6,0
2004/4/5,4:15,4.8,0,87,0,18.3,0,47,0,=,1,18.4,0,15.6,0
2004/4/5,4:30,4.5,0,88,0,18.2,0,47,0,=,1,18.3,0,15.5,0
2004/4/5,4:45,4.5,0,88,0,18.1,0,47,0,=,1,18.2,0,15.4,0
2004/4/5,5:00,4.4,0,88,0,17.9,0,47,0,=,1,18.1,0,15.3,0
2004/4/5,5:15,4.3,0,87,0,17.7,0,47,0,=,1,18,0,15.3,0
2004/4/5,5:30,4.4,0,88,0,17.8,0,47,0,=,1,17.9,0,15.2,0
2004/4/5,5:45,4.3,0,87,0,20,0,41,0,=,1,17.8,0,15.1,0
2004/4/5,6:00,4.3,0,87,0,28.9,0,27,0,=,1,17.7,0,15.1,0
2004/4/5,6:15,4.3,0,88,0,27.7,0,30,0,=,1,18.2,0,15,0
2004/4/5,6:30,4.4,0,88,0,28.8,0,29,0,=,1,19.9,0,14.9,0
2004/4/5,6:45,4.6,0,88,0,26.7,0,29,0,=,1,20.9,0,14.9,0
2004/4/5,7:00,5.1,0,87,0,23.5,0,36,0,=,1,21.6,0,14.8,0
2004/4/5,7:15,5.8,0,87,0,22.8,0,38,0,=,1,21.4,0,14.8,0
2004/4/5,7:30,6.6,0,85,0,22.2,0,38,0,=,1,21,0,14.9,0
2004/4/5,7:45,7.4,0,82,0,21.9,0,38,0,=,1,20.5,0,15,0
2004/4/5,8:00,8.7,0,79,0,21.3,0,38,0,=,1,20.3,0,15.1,0
2004/4/5,8:15,9.7,0,75,0,21.2,0,41,0,=,1,20,0,15.2,0
2004/4/5,8:30,10.7,0,72,0,20.9,0,40,0,=,1,19.9,0,15.2,0
2004/4/5,8:45,12.6,0,56,0,20.9,0,40,0,=,1,19.9,0,15.3,0
2004/4/5,9:00,13.7,0,47,0,20.8,0,42,0,=,1,19.8,0,15.4,0